#timestamp,LO_Frequency,Hit,StdDev 
1526968815.6,286046999.3,N
1526968835.5,286046998.6,N
1526968855.3,286046996.6,N
1526968875.1,286046996.9,N
1526968895.9,286046997.9,N
1526968915.7,286046997.9,N
1526968935.5,286046997.9,N
1526968955.4,286046997.8,N
1526968975.2,286046999.2,N
1526968995.1,286046997.8,N
1526968996.0,286046997.8,N
1526969015.8,286046998.0,N
1526969035.6,286046997.3,N
1526969055.5,286046997.8,N
1526969075.3,286046999.5,N
1526969095.1,286046996.8,N
1526969115.9,286046999.2,N
1526969135.8,286046999.6,N
1526969155.6,286046997.5,N
1526969175.5,286046995.4,Y
1526969195.3,286046999.3,P
1526969215.1,286046999.3,P
1526969235.9,286046999.6,N
1526969255.7,286046995.6,Y
1526969275.6,286046999.5,P
1526969295.4,286046999.5,P
1526969315.2,286046997.5,P
1526969335.1,286046993.4,Y
1526969336.0,286046993.4,P
1526969355.8,286046999.5,N
1526969375.7,286046997.9,N
1526969395.5,286046994.0,N
1526969415.3,286046994.3,N
1526969435.2,286046993.7,N
1526969455.0,286046994.3,N
1526969455.9,286046994.3,N
1526969475.8,286046991.7,Y
1526969495.6,286046996.5,P
1526969515.4,286046997.2,P
1526969535.3,286046999.5,N
1526969555.1,286046996.9,N
1526969575.8,286046996.6,N
1526969595.7,286046999.6,N
1526969615.5,286046998.8,N
1526969635.4,286047000.6,N
1526969655.2,286047001.0,N
1526969675.0,286047001.0,N
1526969675.9,286047001.0,N
1526969695.8,286047002.7,N
1526969715.6,286047000.0,N
1526969735.4,286047000.1,N
1526969755.3,286047000.2,N
1526969775.1,286047002.3,N
1526969795.9,286047001.3,N
1526969815.7,286046999.7,N
1526969835.5,286047002.6,N
1526969855.4,286047000.0,N
1526969875.2,286047001.6,N
1526969895.0,286047001.3,N
1526969896.0,286047001.3,N
1526969915.8,286047001.7,N
1526969935.6,286047004.4,N
1526969955.5,286047002.7,N
1526969975.3,286047002.1,N
1526969995.1,286047002.0,N
1526970015.9,286047001.2,N
1526970035.7,286046998.3,N
1526970055.6,286046998.2,N
1526970075.4,286047001.1,N
1526970095.2,286047000.0,N
1526970115.1,286047000.0,N
1526970116.0,286047000.0,N
1526970135.8,286047002.8,N
1526970155.7,286047000.7,N
1526970175.5,286047000.5,N
1526970195.3,286046998.5,N
1526970215.2,286046998.1,N
1526970235.0,286047000.2,N
1526970235.9,286047000.2,N
1526970255.8,286047001.9,N
1526970275.6,286047002.0,N
1526970295.4,286047002.7,N
1526970315.3,286046999.7,N
1526970335.1,286047001.9,N
1526970355.9,286047004.2,N
1526970375.7,286047004.3,N
1526970395.5,286047003.5,N
1526970415.4,286047003.7,N
1526970435.2,286047003.8,N
1526970455.0,286047002.4,N
1526970455.9,286047002.4,N
1526970475.8,286047001.3,N
1526970495.6,286047004.4,N
1526970515.5,286047003.5,N
1526970535.3,286047003.5,N
1526970555.1,286047003.8,N
1526970575.9,286047002.9,N
1526970595.7,286047003.8,N
1526970615.5,286047004.0,N
1526970635.4,286047004.4,N
1526970655.2,286047002.1,N
1526970675.1,286047001.7,N
1526970676.0,286047001.7,N
1526970695.8,286047003.7,N
1526970715.6,286047002.3,N
1526970735.5,286046999.8,N
1526970755.3,286047002.0,N
1526970775.2,286047000.6,N
1526970795.9,286047001.5,N
1526970815.7,286047004.4,Y
1526970835.6,286047000.2,P
1526970855.4,286046999.9,N
1526970875.2,286046999.7,N
1526970895.1,286047000.1,N
1526970896.0,286047000.1,N
1526970915.8,286047002.8,N
1526970935.7,286047001.0,N
1526970955.5,286047000.8,N
1526970975.3,286047002.4,N
1526970995.2,286047000.3,N
1526971015.0,286046998.6,N
1526971015.9,286046998.6,N
1526971035.7,286046999.4,N
1526971055.6,286047001.1,N
1526971075.4,286047000.8,N
1526971095.3,286047000.9,N
1526971115.1,286046998.3,N
1526971116.0,286046998.3,N
1526971135.8,286047000.1,N
1526971155.7,286047001.6,N
1526971175.5,286047002.3,N
1526971195.3,286047001.0,N
1526971215.2,286047002.8,N
1526971235.0,286047002.5,N
1526971235.9,286047002.5,N
1526971255.8,286047000.1,N
1526971275.6,286047000.4,N
1526971295.4,286047000.0,N
1526971315.3,286047001.2,N
1526971335.1,286046999.8,N
1526971355.8,286047000.5,N
1526971375.7,286046999.7,N
1526971395.5,286047001.3,N
1526971415.4,286047001.6,N
1526971435.2,286047002.4,N
1526971455.0,286047000.7,N
1526971455.9,286047000.7,N
1526971475.8,286046998.7,N
1526971495.6,286046998.3,N
1526971515.5,286047001.0,N
1526971535.3,286047000.6,N
1526971555.1,286047002.7,N
1526971575.9,286046999.9,N
1526971595.7,286047000.9,N
1526971615.6,286047001.0,N
1526971635.4,286047002.7,N
1526971655.2,286047002.2,N
1526971675.1,286046999.7,N
1526971676.0,286046999.7,N
1526971695.8,286047002.7,N
1526971715.6,286047002.8,N
1526971735.5,286047004.0,Y
1526971755.3,286047002.3,P
1526971775.2,286047000.2,N
1526971795.9,286047000.0,N
1526971815.8,286047000.2,N
1526971835.7,286047000.1,N
1526971855.5,286047002.4,N
1526971875.4,286047002.6,N
1526971895.2,286047000.2,N
1526971915.0,286047000.9,N
1526971915.9,286047000.9,N
1526971935.8,286047000.9,N
1526971955.6,286047000.6,N
1526971975.5,286047000.4,N
1526971995.3,286047001.2,N
1526972015.1,286047002.7,Y
1526972035.9,286047000.6,P
1526972055.7,286047000.9,P
1526972075.6,286046999.9,N
1526972095.4,286047002.4,Y
1526972115.2,286046998.9,P
1526972135.1,286046996.6,P
1526972136.0,286046996.6,N
1526972155.8,286046997.4,N
1526972175.7,286046997.4,N
1526972195.5,286046996.8,N
1526972215.3,286046998.3,N
1526972235.2,286046999.3,N
1526972255.9,286046999.1,N
1526972275.7,286046999.6,N
1526972295.6,286046999.0,N
1526972315.4,286046996.8,N
1526972335.3,286046999.3,N
1526972355.1,286046998.5,N
1526972356.0,286046998.5,N
1526972375.8,286046998.6,N
1526972395.7,286046998.2,N
